Location: Miles
(41.4492°N, 81.6087°W)
Time: 20:34:32
(UTC+00:00)

Vanguard 2 Rocket - Pass Details

Date: 22 September 2024
Orbit: 553 x 3298 km, 32.9° (Epoch: 11 October)

Event Time Altitude Azimuth Distance (km) Brightness Sun altitude
Rises 10:22:22 0° 274° (W) 5,190 - -10.5°
Reaches altitude 10° 10:25:40 10° 266° (W) 4,538 - -9.9°
Exits shadow 10:26:01 11° 265° (W) 4,478 9.7 -9.9°
Maximum altitude 10:37:32 37° 205° (SSW) 3,773 9.8 -7.7°
Drops below altitude 10° 10:54:01 10° 148° (SSE) 6,216 11.5 -4.7°
Sets 10:59:38 0° 141° (SE) 7,270 12.1 -3.6°
